WESTFORD NEEDLES, 19109

Orbit data source: Space-Track

WESTFORD NEEDLES, 19109 is space debris in LEO originally from a launch on Thu, 09 May 1963 UTC launched from the Air Force Western Test Range (AFWTR). Debris objects in space refer to the collection of defunct objects orbiting the Earth. Examples of debris include non-operational satellites, rocket bodies, and fragments generated from explosions, collisions, or faulty payload assembly.

Loading next visibility...
Identifier
19109, 1963-014EJ
Orbit
LEO
Country
Flag of USUS
Related business
Manufacturer
Unknown
Mission
Spacecraft
Bus & Motor
Unknown
Mass
Unknown
Launch date (UTC)
1963-05-09 (63 years ago)
Launch vehicle
Unknown
Launch site
Air Force Western Test Range (AFWTR)
Object type
Payload
Rocket body
Debris
Shape & HBR
Unknown shape, 0.2 m
Radar Cross Section
Medium (>0.1 m² and <1 m²)

Expand to show TLE details & history
Last TLE update: 7 hours ago

TLE from 7 hours ago
0 WESTFORD NEEDLES
1 19109U 63014EJ  26237.48208317  .00000292  00000-0  53211-1 0  9993
2 19109  86.8791  60.2088 1307533  38.6483 330.1019  8.71732369464433
Epoch: 2026-08-25T11:34Z
TLE epoch observation values (Epoch: 2026-08-25T11:34:11.985Z)
Latitude
-0.00004°
Longitude
-87.08994°
Altitude
2,516.836 km
Speed
7.048 km/s
True Right ascension
04h 00m 50s
True Declination
0° 00' 00"
Sunlit
Object was in daylight at epoch
Visualization orbit readout
Latitude
Unknown
Longitude
Unknown
Altitude
Unknown
Speed
Unknown
Apparent Right ascension
Unknown
Apparent Declination
Unknown
Sunlit
N/A
Visualization observer readout
Local Sidereal Time
10:02:30
Azimuth
Unknown
Elevation
Unknown
Doppler factor
Unknown
Orbital elements
Apogee altitude
4,896.002 km
Perigee altitude
2,288.659 km
Semi-major axis
9,970.468 km
Eccentricity
0.13075
Inclination
86.8791°
RAAN
60.2088°
Arg. of periapsis
38.6483°
True anomaly
321.44379°
Mean anomaly
330.1019°
Eccentric anomaly
325.90203°
Mean motion
2.18007 °/min
Orbital period
165.13 mins
BSTAR
0.053211

Documentation

Showing up to 5 results
|